"Pseudo-MPEC" for P10GxwK

Created 2018 Feb 19 17:18:09 UT using Find_Orb

Astrometry:
     P10GxwK  C2018 02 12[/AstrometryrYyCdAsv%sf21m0\L$NkYfCHaL,STgbaId]v:p([F51
     P10GxwK  C2018 02 12MlyKFD*fBSNn_[w\Z8+xu\8kRN3l@+Ek,DPrf)4B[6HXr(qWZF9rF51
     P10GxwK  C2018 02 12lE6@3\:\,$\Ql?Qa3pcEBEy%=mw/8gOKJCD,)f?SX^+8Er..=PSZF51
     P10GxwK  C2018 02 12)2Qv/`iwi:!28a;M[redacted;n+tSCsK+(i[5#dHT;1n*.]xcI7F51
     P10GxwK KC2018 02 17J?,w!\O.YHYd*y@YB3Y-[=p;YB,^a85mrk!+:4JD7#pA:^TH?q8g291
     P10GxwK KC2018 02 17wZs5AfK^YwOZ\in,h_0,V+Gn`o31gKx+LT'8%eqn+^8SE9/fI:3=291
     P10GxwK KC2018 02 17\PfIVdh;6vB(!ayW0^oH8n(Q#nT\qrr!see^v1IM9:oB;1uLAZui291
     P10GxwK |C2018 02 19rjK#msW1/(*(]h$okvB_6k'+VWw6R@.Bkej?v!N$_Vb(41M0S2xm807
     P10GxwK |C2018 02 19+UJR`osIk45]1k2iPB+21`uIrvHf[#6x/PG\yl!h(8Ss$B#GN62D807
     P10GxwK |C2018 02 19P-n]ph?MX=\c?b0tP8f)ekCl.Y$RceeIp.hC@_Z)#Slg'vZNEOCP807

Station data:
(291) LPL/Spacewatch II  (N31.961626 W111.599100)  US/Arizona.  Observers J.
   V. Scotti, R. S. McMillan. 1.8-m f/2.7 reflector + CCD.
(807) Cerro Tololo Observatory, La Serena  (S30.169133 W70.805900)  Chile.
   Observers M. Holman, J. Kavelaars, T. Grav, W. Fraser. Measurer M. Holman.
   4-m Blanco reflector + CCD.
(F51) Pan-STARRS 1, Haleakala  (N20.707234 W156.255910)  US/Hawaii.
   Observers N. Primak, A. Schultz, S. Watters, J. Thiel, T. Goggia. Measurer
   PS1 Science Consortium. 1.8-m Ritchey-Chrétien + CCD.

Orbital elements:  P10GxwK
   Perihelion 2018 Nov 30.937816 +/- 10.4 TT = 22:30:27 (JD 2458453.437816)
Epoch 2018 Feb 19.0 TT = JDT 2458168.5   Earth MOID: 0.7072   AutoNEOCP
M 250.26035 +/- 3.4                 (J2000 ecliptic)
n   0.38513540 +/- 0.00219          Peri.  298.63803 +/- 3.1
a   1.87094239 +/- 0.0071           Node   325.56603 +/- 0.10
e   0.1090262 +/- 0.0015            Incl.   18.95526 +/- 0.49
P   2.56/934.72d           H 20.2   G  0.15   U  8.7  
q 1.66696049 +/- 0.006    Q 2.07492430 +/- 0.00914
From 10 observations 2018 Feb. 12-19; mean residual 0".12
Residuals in arcseconds: 
180212 F51  .07-  .03+    180217 291  .28-  .08-    180219 807  .19+  .07+    
180212 F51  .02-  .07+    180217 291  .01+  .03-    180219 807  .11-  .01-    
180212 F51  .16+  .03-    180217 291  .27+  .12+    
180212 F51  .07-  .07-    180219 807  .08-  .06-    

Ephemerides (geocentric):
Date (UTC) HH   RA              Dec         delta   r     elong  mag " sig PA
---- -- -- --  ------------   ------------  ------ ------ -----  --- ---- ---
2018 02 19 17  09 17 31.224   +17 08 09.51  .98422 1.9576 165.7 22.2  .50 177
2018 02 19 18  09 17 27.107   +17 07 52.23  .98428 1.9575 165.6 22.2  .52 177
2018 02 19 19  09 17 22.993   +17 07 34.94  .98434 1.9575 165.6 22.2  .54 176
2018 02 19 20  09 17 18.880   +17 07 17.63  .98440 1.9574 165.5 22.2  .56 176
2018 02 19 21  09 17 14.770   +17 07 00.32  .98446 1.9574 165.5 22.2  .58 176
2018 02 19 22  09 17 10.662   +17 06 42.99  .98453 1.9573 165.4 22.2  .60 176
2018 02 19 23  09 17 06.557   +17 06 25.65  .98459 1.9573 165.4 22.2  .62 176
2018 02 20 00  09 17 02.453   +17 06 08.29  .98465 1.9572 165.3 22.2  .64 175
2018 02 20 01  09 16 58.353   +17 05 50.92  .98472 1.9572 165.3 22.2  .66 175
2018 02 20 02  09 16 54.254   +17 05 33.55  .98478 1.9571 165.2 22.2  .68 175
2018 02 20 03  09 16 50.158   +17 05 16.15  .98485 1.9571 165.2 22.2  .70 175
2018 02 20 04  09 16 46.064   +17 04 58.75  .98491 1.9570 165.1 22.2  .72 175
2018 02 20 05  09 16 41.973   +17 04 41.34  .98498 1.9570 165.0 22.2  .74 174
2018 02 20 06  09 16 37.884   +17 04 23.91  .98504 1.9569 165.0 22.2  .76 174
2018 02 20 07  09 16 33.798   +17 04 06.47  .98511 1.9569 164.9 22.2  .78 174
2018 02 20 08  09 16 29.714   +17 03 49.02  .98518 1.9568 164.9 22.2  .80 174
2018 02 20 09  09 16 25.632   +17 03 31.55  .98524 1.9568 164.8 22.2  .83 174
2018 02 20 10  09 16 21.553   +17 03 14.08  .98531 1.9567 164.8 22.2  .85 173
2018 02 20 11  09 16 17.476   +17 02 56.59  .98538 1.9567 164.7 22.2  .87 173
2018 02 20 12  09 16 13.402   +17 02 39.09  .98545 1.9566 164.7 22.2  .89 173
2018 02 20 13  09 16 09.330   +17 02 21.58  .98552 1.9566 164.6 22.2  .91 173
2018 02 20 14  09 16 05.260   +17 02 04.05  .98559 1.9565 164.5 22.2  .94 173
2018 02 20 15  09 16 01.193   +17 01 46.51  .98566 1.9565 164.5 22.2  .96 172
2018 02 20 16  09 15 57.129   +17 01 28.97  .98573 1.9564 164.4 22.2  .98 172
2018 02 20 17  09 15 53.067   +17 01 11.41  .98580 1.9564 164.4 22.2  1.0 172
2018 02 20 18  09 15 49.008   +17 00 53.83  .98587 1.9563 164.3 22.2  1.0 172
2018 02 20 19  09 15 44.951   +17 00 36.25  .98595 1.9563 164.3 22.2  1.1 171
2018 02 20 20  09 15 40.896   +17 00 18.65  .98602 1.9562 164.2 22.2  1.1 171
2018 02 20 21  09 15 36.845   +17 00 01.04  .98609 1.9562 164.2 22.2  1.1 171
2018 02 20 22  09 15 32.795   +16 59 43.42  .98617 1.9561 164.1 22.2  1.1 171
2018 02 20 23  09 15 28.749   +16 59 25.79  .98624 1.9561 164.0 22.2  1.1 171
2018 02 21 00  09 15 24.705   +16 59 08.15  .98632 1.9560 164.0 22.2  1.2 170
2018 02 21 01  09 15 20.663   +16 58 50.49  .98639 1.9560 163.9 22.2  1.2 170
2018 02 21 02  09 15 16.624   +16 58 32.82  .98647 1.9559 163.9 22.2  1.2 170
2018 02 21 03  09 15 12.588   +16 58 15.15  .98654 1.9559 163.8 22.2  1.2 170
2018 02 21 04  09 15 08.554   +16 57 57.45  .98662 1.9558 163.8 22.2  1.3 170
2018 02 21 05  09 15 04.523   +16 57 39.75  .98670 1.9558 163.7 22.2  1.3 169
2018 02 21 06  09 15 00.495   +16 57 22.04  .98677 1.9557 163.7 22.2  1.3 169
2018 02 21 07  09 14 56.469   +16 57 04.31  .98685 1.9557 163.6 22.2  1.4 169
2018 02 21 08  09 14 52.446   +16 56 46.57  .98693 1.9556 163.6 22.2  1.4 169
2018 02 21 09  09 14 48.425   +16 56 28.82  .98701 1.9556 163.5 22.2  1.4 169
2018 02 21 10  09 14 44.407   +16 56 11.06  .98709 1.9555 163.4 22.2  1.4 168
2018 02 21 11  09 14 40.392   +16 55 53.28  .98717 1.9555 163.4 22.2  1.5 168
2018 02 21 12  09 14 36.380   +16 55 35.50  .98725 1.9554 163.3 22.3  1.5 168
2018 02 21 13  09 14 32.370   +16 55 17.70  .98733 1.9554 163.3 22.3  1.5 168
2018 02 21 14  09 14 28.363   +16 54 59.89  .98741 1.9553 163.2 22.3  1.5 168
2018 02 21 15  09 14 24.358   +16 54 42.07  .98749 1.9553 163.2 22.3  1.6 167
2018 02 21 16  09 14 20.357   +16 54 24.24  .98757 1.9552 163.1 22.3  1.6 167